[[{"header":{"parameterUnit":"m.s-1","parameterCategory":1,"la1":30.2991,"la2":30.254,"lo1":-89.0895,"lo2":-89.0444,"dy":0.0017,"dx":0.0017,"nx":28,"ny":28,"refTime":"2023-08-17T09:00:00:Z","depth":0,"parameterNumber":2,"parameterNumberName":"U-component_of_WINDS"},"data":[0,0,0,0,0,0,0,0,0,0,0,0,0,0,0,0,0,0,0,0,0,0,0,0,0,0,0,0,0,0,0,0,0,0,0,0,0,0,0,0,0,0,0,0,0,0,0,0,0,0,0,0,0,0,0,0,0,0,1.0643,1.0643,0,1.0685,1.0685,1.0686,1.069,1.069,1.0689,1.0689,1.0729,1.073,1.0732,0,0,0,0,0,0,0,0,0,0,0,0,0,1.0563,1.0564,1.0643,1.0643,1.0644,1.0685,1.0685,1.0686,1.069,1.069,1.0689,1.0689,1.0728,1.073,1.0732,0,0,0,0,0,0,0,0,0,0,0,0,0,1.06,1.0565,1.0643,1.0651,1.0652,1.0685,1.0685,1.0686,1.069,1.069,1.0689,1.0688,1.0728,1.073,1.0732,1.0758,0,0,1.0739,1.074,0,0,0,0,0,0,0,0,1.0598,1.0603,1.0649,1.0651,1.0652,1.0682,1.0672,1.071,1.069,1.0676,1.0689,1.0688,1.0713,1.0717,1.0726,1.076,1.0762,1.0739,1.074,1.0741,1.0742,0,0,0,0,0,0,0,1.0596,1.0601,1.0659,1.065,1.0652,1.0651,1.0656,1.0679,1.0697,1.0677,1.0677,1.0682,1.0714,1.0724,1.0727,1.0762,1.0739,1.0741,1.0742,1.0743,1.0818,1.0819,0,0,0,0,0,0,1.0592,1.0599,1.0658,1.0661,1.0623,1.0653,1.0659,1.0673,1.0697,1.07,1.0683,1.0682,1.072,1.0724,1.0728,1.0759,1.0741,1.0743,1.0744,1.0818,1.0818,1.0819,0,0,0,0,0,0,1.059,1.0597,1.0656,1.063,1.0638,1.0655,1.0671,1.0674,1.0684,1.0702,1.0705,1.069,1.072,1.0725,1.0751,1.0761,1.0744,1.0746,1.0817,1.0818,1.0819,1.0822,0,0,0,0,0,0,1.0588,1.0597,1.0608,1.063,1.0639,1.0679,1.0672,1.0675,1.0688,1.0687,1.0709,1.0712,1.072,1.0747,1.0753,1.0763,1.0748,1.0816,1.0817,1.0818,1.0821,1.0823,1.0825,0,0,0,0,0,1.0585,1.0607,1.0608,1.0615,1.0653,1.068,1.0684,1.0694,1.0689,1.0699,1.071,1.0711,1.0759,1.075,1.0756,1.0768,1.0815,1.0817,1.0818,1.082,1.0823,1.0825,0,0,0,0,0,0,1.0584,1.061,1.0612,1.0642,1.0658,1.068,1.0694,1.0696,1.0714,1.0713,1.0724,1.0728,1.0753,1.0763,1.0752,1.0793,1.0786,1.0789,1.0786,1.0788,1.079,1.0787,1.075,0,0,0,0,0,1.0587,1.0607,1.0629,1.0653,1.0661,1.0676,1.0688,1.0694,1.0711,1.0718,1.0731,1.0747,1.0766,1.0778,1.0796,1.0823,1.0827,1.0834,1.0836,1.0837,1.0839,1.0852,1.0855,1.0824,1.0824,1.0824,0,0,1.0594,1.061,1.0623,1.0653,1.0667,1.0686,1.0682,1.0703,1.0717,1.0721,1.0745,1.0756,1.0774,1.08,1.0812,1.0809,1.0849,1.0839,1.084,1.0841,1.0854,1.0857,1.086,1.0825,1.0825,1.0825,0,0,1.0616,1.0631,1.0652,1.0666,1.0687,1.0697,1.0702,1.0723,1.073,1.0756,1.0759,1.0775,1.0807,1.082,1.083,1.0856,1.0857,1.0861,1.0871,1.0884,1.0886,1.0888,1.0896,1.0899,1.0864,1.0864,1.0864,0,1.0621,1.0651,1.0662,1.0683,1.0696,1.0701,1.0721,1.0734,1.0759,1.0767,1.0764,1.0803,1.0816,1.0845,1.0851,1.086,1.0864,1.0859,1.0885,1.0887,1.089,1.0897,1.09,1.0864,1.0864,1.0864,1.0864,0,1.0656,1.0677,1.0691,1.0716,1.0731,1.0751,1.0764,1.0777,1.0781,1.0791,1.0815,1.0831,1.0852,1.0859,1.0864,1.0887,1.0885,1.0883,1.0876,1.0893,1.09,1.0903,1.0864,1.0864,1.0864,1.0864,0,0,1.0678,1.0709,1.0714,1.0725,1.0748,1.0764,1.0784,1.0805,1.0815,1.0832,1.0848,1.0875,1.0873,1.0885,1.0891,1.0902,1.092,1.0899,1.09,1.0901,1.0946,1.0946,1.0949,1.0921,1.0922,1.0922,1.0944,0,1.0701,1.0738,1.0748,1.0779,1.0797,1.0803,1.082,1.0835,1.0844,1.086,1.087,1.0889,1.0886,1.0893,1.0905,1.0915,1.0929,1.0914,1.0935,1.0935,1.0929,1.0953,1.0954,1.0973,1.0947,1.0947,1.0948,0,1.0734,1.0752,1.0785,1.0805,1.0813,1.0828,1.0847,1.0863,1.088,1.0886,1.0899,1.0904,1.0924,1.0916,1.0943,1.0932,1.0941,1.0948,1.0949,1.095,1.0942,1.0954,1.098,1.0982,1.0952,1.0952,1.0952,0,1.0744,1.0777,1.0801,1.081,1.0834,1.0845,1.0855,1.0872,1.0883,1.09,1.0907,1.0926,1.0936,1.0949,1.0958,1.0953,1.0984,1.0977,1.0988,1.0987,1.0993,1.0993,1.102,1.1001,1.1001,1.1001,1.1001,0,1.0769,1.0788,1.0806,1.082,1.0841,1.0852,1.0873,1.0883,1.0898,1.0913,1.0919,1.0933,1.0944,1.096,1.0967,1.0987,1.0991,1.0996,1.0997,1.0995,1.0994,1.1,1.0998,1.1002,1.1001,1.1001,1.1001,0,1.0784,1.0797,1.0823,1.0844,1.0849,1.0864,1.0881,1.0894,1.0904,1.0923,1.0928,1.0943,1.0961,1.0972,1.0995,1.0999,1.1021,1.1023,1.1015,1.1016,1.1025,1.1024,1.1056,1.106,1.104,1.104,1.104,0,1.0798,1.0813,1.0836,1.0847,1.0858,1.0876,1.0887,1.0899,1.091,1.0931,1.0941,1.096,1.0975,1.1004,1.1016,1.1033,1.1034,1.1044,1.1037,1.1033,1.1033,1.1031,1.1032,1.1045,1.1045,1.1046,1.1046,0,1.0821,1.0827,1.0844,1.0864,1.0878,1.0894,1.0909,1.0918,1.0931,1.0944,1.0963,1.0975,1.0999,1.1017,1.1035,1.1044,1.1047,1.1048,1.1051,1.1048,1.1043,1.1045,1.1018,1.1047,1.1047,1.1047,1.1047,1.1047,1.0836,1.0849,1.0867,1.0886,1.0899,1.0913,1.0926,1.0937,1.0954,1.0974,1.0979,1.0999,1.1014,1.1039,1.1049,1.1064,1.1062,1.1067,1.1068,1.1068,1.1068,1.1042,1.1067,1.1067,1.1067,1.1067,1.1067,0,1.0858,1.0869,1.0887,1.0909,1.0923,1.0926,1.0943,1.0954,1.0972,1.0986,1.1002,1.1023,1.104,1.1053,1.1071,1.108,1.1081,1.1084,1.1083,1.1085,1.1069,1.1064,1.1083,1.1083,1.1083,1.1083,1.1083,1.1083,1.0871,1.0893,1.09,1.0928,1.094,1.096,1.0969,1.0982,1.0993,1.1017,1.1032,1.1041,1.1054,1.1073,1.1088,1.1092,1.1097,1.11,1.1103,1.1088,1.1086,1.1084,1.108,1.1101,1.1101,1.1117,1.1117,1.1117]},{"header":{"parameterUnit":"m.s-1","parameterCategory":1,"la1":30.2991,"la2":30.254,"lo1":-89.0895,"lo2":-89.0444,"dy":0.0017,"dx":0.0017,"nx":28,"ny":28,"refTime":"2023-08-17T09:00:00:Z","depth":0,"parameterNumber":3,"parameterNumberName":"V-component_of_WINDS"},"data":[0,0,0,0,0,0,0,0,0,0,0,0,0,0,0,0,0,0,0,0,0,0,0,0,0,0,0,0,0,0,0,0,0,0,0,0,0,0,0,0,0,0,0,0,0,0,0,0,0,0,0,0,0,0,0,0,0,0,5.6418,5.6417,0,5.6369,5.6368,5.6368,5.6241,5.6238,5.6235,5.6233,5.6185,5.6186,5.6187,0,0,0,0,0,0,0,0,0,0,0,0,0,5.6404,5.6405,5.6418,5.6417,5.6417,5.6369,5.6368,5.6368,5.6241,5.6238,5.6234,5.6231,5.6184,5.6186,5.6187,0,0,0,0,0,0,0,0,0,0,0,0,0,5.6388,5.6405,5.6418,5.6348,5.6341,5.6369,5.6368,5.6368,5.6242,5.6238,5.6234,5.623,5.6184,5.6186,5.6187,5.6281,0,0,5.6193,5.6194,0,0,0,0,0,0,0,0,5.6389,5.6389,5.6359,5.6353,5.6345,5.6307,5.6345,5.6338,5.6243,5.628,5.6232,5.6228,5.6229,5.6227,5.6226,5.6278,5.6276,5.6193,5.6194,5.6195,5.6196,0,0,0,0,0,0,0,5.639,5.639,5.6399,5.6359,5.635,5.6319,5.6312,5.6344,5.6278,5.6276,5.6267,5.6262,5.6224,5.6225,5.6224,5.6276,5.6193,5.6195,5.6196,5.6197,5.6399,5.6403,0,0,0,0,0,0,5.6401,5.6392,5.64,5.6397,5.6357,5.6323,5.6315,5.6323,5.6277,5.6266,5.6266,5.6257,5.6224,5.6222,5.6222,5.6326,5.6195,5.6197,5.6198,5.6395,5.64,5.6405,0,0,0,0,0,0,5.6401,5.6403,5.6402,5.6392,5.6389,5.6327,5.6337,5.6324,5.6325,5.6269,5.6257,5.6279,5.622,5.622,5.6266,5.6323,5.6198,5.62,5.639,5.6397,5.6403,5.6536,0,0,0,0,0,0,5.6402,5.6404,5.6438,5.6394,5.639,5.6447,5.6341,5.6326,5.6328,5.6316,5.6278,5.6268,5.6217,5.6264,5.6268,5.6323,5.6201,5.6385,5.6393,5.6401,5.6526,5.6546,5.6563,0,0,0,0,0,5.6401,5.6479,5.6441,5.6442,5.6432,5.6451,5.6449,5.6388,5.6333,5.6367,5.6331,5.6269,5.6317,5.627,5.6274,5.633,5.6381,5.6391,5.64,5.6518,5.6542,5.6563,0,0,0,0,0,0,5.6533,5.6472,5.6429,5.6494,5.6478,5.6429,5.647,5.6416,5.6416,5.6405,5.633,5.6323,5.638,5.636,5.6309,5.6416,5.6338,5.6349,5.6427,5.645,5.6468,5.647,5.6203,0,0,0,0,0,5.6569,5.6589,5.6535,5.6597,5.6592,5.6533,5.6539,5.6493,5.6474,5.6467,5.6435,5.642,5.643,5.6439,5.6447,5.6524,5.6513,5.6564,5.6583,5.6598,5.6607,5.6645,5.6666,5.6436,5.6436,5.6436,0,0,5.6645,5.6614,5.6631,5.6623,5.6605,5.6627,5.6528,5.6556,5.6571,5.6472,5.6512,5.6489,5.6467,5.6529,5.6554,5.6514,5.6669,5.661,5.6623,5.6624,5.6657,5.6678,5.6698,5.6443,5.6442,5.6441,0,0,5.6793,5.6773,5.6821,5.6806,5.678,5.674,5.6752,5.6711,5.6691,5.6731,5.6656,5.6674,5.6696,5.6682,5.6678,5.6822,5.6763,5.6826,5.6922,5.6959,5.6977,5.6993,5.7042,5.706,5.6837,5.6837,5.6837,0,5.689,5.6919,5.6853,5.6885,5.6883,5.6794,5.6842,5.6831,5.681,5.6811,5.6766,5.6789,5.6769,5.6825,5.686,5.6861,5.6871,5.6829,5.698,5.6995,5.7008,5.7054,5.7073,5.6844,5.6844,5.6843,5.6842,0,5.7039,5.7061,5.7103,5.7083,5.7087,5.7127,5.7068,5.7079,5.7034,5.6999,5.7041,5.7013,5.7012,5.7023,5.698,5.7073,5.7048,5.6993,5.6912,5.7039,5.7081,5.7098,5.6855,5.6853,5.685,5.6848,0,0,5.7267,5.721,5.7226,5.7215,5.7181,5.7196,5.7233,5.7231,5.7241,5.7231,5.7258,5.7278,5.7227,5.7222,5.7177,5.721,5.7323,5.715,5.7149,5.7181,5.7422,5.7461,5.7483,5.7285,5.7288,5.7291,5.7423,0,5.7404,5.7461,5.7403,5.7472,5.7491,5.7406,5.7438,5.742,5.7389,5.7401,5.7366,5.7381,5.7313,5.7309,5.7338,5.7303,5.737,5.7293,5.7309,5.7311,5.7315,5.7505,5.7547,5.7673,5.7439,5.7442,5.7443,0,5.7571,5.7566,5.7637,5.7596,5.7602,5.7631,5.7624,5.7637,5.7615,5.759,5.7586,5.753,5.7563,5.7487,5.7531,5.748,5.7483,5.7467,5.7471,5.7468,5.7383,5.7505,5.7712,5.773,5.7469,5.7467,5.7465,0,5.7727,5.7739,5.7782,5.7776,5.773,5.7752,5.7735,5.7709,5.7711,5.7706,5.7706,5.7706,5.7705,5.7706,5.7652,5.7602,5.7702,5.7622,5.7681,5.7683,5.7704,5.7703,5.7912,5.7711,5.7711,5.7711,5.771,0,5.7885,5.7931,5.7851,5.7877,5.7926,5.786,5.791,5.7884,5.7862,5.7882,5.781,5.7831,5.7759,5.7772,5.7731,5.7772,5.7773,5.7753,5.7741,5.7758,5.776,5.7757,5.7746,5.7716,5.7715,5.7714,5.7713,0,5.8066,5.8014,5.8055,5.8009,5.7998,5.8036,5.7996,5.8019,5.7984,5.801,5.8012,5.7956,5.7968,5.7915,5.7917,5.7889,5.7951,5.7926,5.7958,5.7949,5.801,5.8004,5.8223,5.8247,5.8034,5.8036,5.8038,0,5.8169,5.8202,5.8159,5.8166,5.8152,5.8166,5.8167,5.8103,5.8108,5.8086,5.8111,5.8116,5.8117,5.8139,5.8099,5.81,5.8073,5.8149,5.8073,5.8088,5.8071,5.8069,5.8071,5.8165,5.8167,5.8169,5.8171,0,5.8355,5.8328,5.8332,5.8328,5.8332,5.8326,5.8315,5.8326,5.8257,5.8266,5.8276,5.8277,5.8278,5.8284,5.8277,5.8259,5.8204,5.8196,5.8209,5.8226,5.8242,5.8231,5.7998,5.8191,5.8189,5.8187,5.8186,5.8186,5.8498,5.8523,5.8496,5.8503,5.8488,5.848,5.8498,5.8464,5.8471,5.8467,5.843,5.8447,5.8424,5.8409,5.8396,5.8409,5.8373,5.8393,5.8397,5.8403,5.8412,5.8242,5.8408,5.8407,5.8407,5.8406,5.8406,0,5.8679,5.8658,5.8665,5.8651,5.8657,5.8604,5.859,5.8598,5.8613,5.8597,5.8598,5.861,5.8615,5.8576,5.8576,5.8593,5.8568,5.8595,5.8592,5.8588,5.8446,5.8433,5.8616,5.8616,5.8616,5.8615,5.8615,5.8615,5.8774,5.8812,5.8782,5.8812,5.879,5.8805,5.8801,5.8793,5.8779,5.8794,5.8798,5.8772,5.8746,5.8743,5.8746,5.8734,5.8736,5.8772,5.8752,5.8619,5.8599,5.8579,5.8566,5.8774,5.8774,5.8892,5.8894,5.8895]}]]